Gainesville, FL

4:59 AM EST on February 06, 2016 (GMT -0500)
Gainesville Regional

Weather History for KGNV - February, 2015

Change the Weather History Date:

Tuesday, February 10, 2015

  Actual Average Record
Temperature  
Mean Temperature 53 °F 57 °F  
Max Temperature 63 °F 69 °F 86 °F (1957)
Min Temperature 43 °F 45 °F 24 °F (1947)
Degree Days  
Heating Degree Days 12 9  
Month to date heating degree days 120 95  
Since 1 July heating degree days 935 897  
Cooling Degree Days 0 1  
Month to date cooling degree days 0 6  
Year to date cooling degree days 14 18  
Growing Degree Days 4 (Base 50)    
Moisture  
Dew Point 49 °F    
Average Humidity 80    
Maximum Humidity 100    
Minimum Humidity 60    
Precipitation  
Precipitation 0.00 in 0.11 in 1.47 in (1973)
Month to date precipitation 0.63 1.10  
Year to date precipitation 3.87 4.41  
Snow  
Snow 0.00 in 0.00 in 0.00 in ()
Month to date snowfall 0.0 0.0  
Since 1 July snowfall 0.0 0.0  
Snow Depth 0.00 in    
Sea Level Pressure  
Sea Level Pressure 29.81 in    
Wind  
Wind Speed 9 mph (NW)    
Max Wind Speed 16 mph    
Max Gust Speed 22 mph    
Visibility 9 miles    
Events      
T = Trace of Precipitation, MM = Missing Value Source: NWS Daily Summary

Daily Weather History Graph

Daily Weather History Graph

Search for Another Location

Airport or City:

Trip Planner

Search our weather history database for the weather conditions in past years. The results will help you decide how hot, cold, wet, or windy it might be!

Date:

Astronomy

Feb. 10, 2015 Rise Set
Actual Time 7:12 AM EST 6:14 PM EST
Civil Twilight 6:48 AM EST 6:38 PM EST
Nautical Twilight 6:20 AM EST 7:06 PM EST
Astronomical Twilight 5:52 AM EST 7:34 PM EST
Moon No Moon Rise 10:52 AM EST (2/10)
Length of Visible Light 11h 50m
Length of Day
11h 01m
Waning Gibbous, 64% of the Moon is Illuminated
Feb 10
Waning Gibbous
Feb 11
Last Quarter
Feb 18
New
Feb 25
First Quarter
Mar 5
Full

Hourly Weather History & Observations

Time (EST) Temp. Windchill Dew Point Humidity Pressure Visibility Wind Dir Wind Speed Gust Speed Precip Events Conditions
12:07 AM 54.0 °F - 53.1 °F 97% 29.76 in 10.0 mi WSW 5.8 mph - N/A   Scattered Clouds
12:28 AM 55.0 °F - 54.0 °F 96% 29.76 in 10.0 mi West 8.1 mph - N/A   Mostly Cloudy
12:37 AM 55.9 °F - 55.0 °F 97% 29.76 in 10.0 mi West 9.2 mph - N/A   Mostly Cloudy
12:53 AM 55.9 °F - 55.0 °F 97% 29.75 in 10.0 mi West 9.2 mph - N/A   Overcast
1:44 AM 55.0 °F - 55.0 °F 100% 29.74 in 10.0 mi West 8.1 mph - N/A   Scattered Clouds
1:53 AM 55.0 °F - 55.0 °F 100% 29.73 in 10.0 mi WNW 8.1 mph - N/A   Scattered Clouds
2:53 AM 54.0 °F - 53.1 °F 97% 29.72 in 10.0 mi WNW 8.1 mph - N/A   Clear
3:53 AM 54.0 °F - 53.1 °F 97% 29.71 in 10.0 mi WNW 6.9 mph - N/A   Clear
4:53 AM 53.1 °F - 52.0 °F 96% 29.73 in 10.0 mi WNW 6.9 mph - N/A   Clear
5:53 AM 52.0 °F - 51.1 °F 97% 29.74 in 9.0 mi NW 8.1 mph - N/A   Clear
6:31 AM 51.1 °F - 50.0 °F 96% 29.76 in 8.0 mi WNW 9.2 mph - N/A   Clear
6:44 AM 51.1 °F - 50.0 °F 96% 29.76 in 7.0 mi WNW 9.2 mph - N/A   Partly Cloudy
6:53 AM 51.1 °F - 50.0 °F 96% 29.76 in 7.0 mi NW 8.1 mph - N/A   Mostly Cloudy
7:53 AM 51.1 °F - 50.0 °F 96% 29.78 in 6.0 mi NNW 9.2 mph 18.4 mph N/A   Overcast
8:53 AM 51.1 °F - 48.9 °F 92% 29.80 in 6.0 mi NNW 11.5 mph - N/A   Overcast
9:53 AM 51.1 °F - 48.9 °F 92% 29.82 in 5.0 mi NW 12.7 mph - N/A   Overcast
10:53 AM 51.1 °F - 48.0 °F 89% 29.84 in 6.0 mi North 10.4 mph - N/A   Overcast
11:36 AM 52.0 °F - 48.0 °F 86% 29.84 in 7.0 mi NW 9.2 mph - N/A   Overcast
11:53 AM 53.1 °F - 48.0 °F 83% 29.84 in 7.0 mi NW 9.2 mph - N/A   Overcast
12:32 PM 55.0 °F - 48.0 °F 77% 29.83 in 8.0 mi North 11.5 mph - N/A   Overcast
12:53 PM 55.9 °F - 48.0 °F 75% 29.82 in 8.0 mi NW 11.5 mph - N/A   Overcast
1:53 PM 60.1 °F - 48.0 °F 64% 29.80 in 9.0 mi NW 11.5 mph - N/A   Scattered Clouds
2:00 PM 60.1 °F - 48.0 °F 64% 29.80 in 9.0 mi NNW 11.5 mph - N/A   Mostly Cloudy
2:53 PM 61.0 °F - 46.9 °F 60% 29.80 in 10.0 mi North 15.0 mph 20.7 mph N/A   Mostly Cloudy
3:00 PM 61.0 °F - 46.9 °F 60% 29.80 in 10.0 mi North 11.5 mph 20.7 mph N/A   Scattered Clouds
3:53 PM 62.1 °F - 48.0 °F 60% 29.81 in 10.0 mi North - - N/A   Scattered Clouds
4:53 PM 60.1 °F - 46.9 °F 62% 29.82 in 10.0 mi North 10.4 mph 20.7 mph N/A   Scattered Clouds
5:53 PM 57.9 °F - 46.0 °F 65% 29.85 in 10.0 mi NNW 9.2 mph - N/A   Clear
6:53 PM 55.0 °F - 46.0 °F 72% 29.88 in 10.0 mi North 8.1 mph - N/A   Mostly Cloudy
7:06 PM 54.0 °F - 46.0 °F 75% 29.89 in 10.0 mi North 9.2 mph - N/A   Scattered Clouds
7:53 PM 52.0 °F - 45.0 °F 77% 29.91 in 10.0 mi North 4.6 mph - N/A   Clear
8:53 PM 48.9 °F - 44.1 °F 83% 29.93 in 10.0 mi NNW 4.6 mph - N/A   Clear
9:53 PM 46.0 °F 44.8 °F 43.0 °F 89% 29.95 in 10.0 mi NW 3.5 mph - N/A   Clear
10:53 PM 46.0 °F 43.1 °F 43.0 °F 89% 29.96 in 10.0 mi NW 5.8 mph - N/A   Clear
11:53 PM 45.0 °F 41.8 °F 43.0 °F 93% 29.96 in 10.0 mi NW 5.8 mph - N/A   Clear